TimeCST,TemperatureF,Dew PointF,Humidity,Sea Level PressureIn,VisibilityMPH,Wind Direction,Wind SpeedMPH,Gust SpeedMPH,PrecipitationIn,Events,Conditions,WindDirDegrees,DateUTC
12:54 AM,19.9,15.1,81,30.34,6.0,Calm,Calm,-,N/A,,Haze,0,2012-11-28 06:54:00
1:54 AM,21.0,17.1,85,30.34,6.0,NW,4.6,-,N/A,,Clear,320,2012-11-28 07:54:00
2:54 AM,18.0,12.9,81,30.37,6.0,SW,4.6,-,N/A,,Haze,230,2012-11-28 08:54:00
3:54 AM,17.1,12.9,84,30.37,6.0,WSW,3.5,-,N/A,,Clear,250,2012-11-28 09:54:00
4:54 AM,17.1,12.0,81,30.37,7.0,Calm,Calm,-,N/A,,Clear,0,2012-11-28 10:54:00
5:54 AM,15.1,10.9,84,30.39,6.0,Calm,Calm,-,N/A,,Clear,0,2012-11-28 11:54:00
6:54 AM,16.0,12.0,84,30.40,6.0,Calm,Calm,-,N/A,,Clear,0,2012-11-28 12:54:00
7:54 AM,16.0,12.0,84,30.41,4.0,Calm,Calm,-,N/A,,Clear,0,2012-11-28 13:54:00
8:54 AM,25.0,19.9,81,30.40,4.0,Calm,Calm,-,N/A,,Haze,0,2012-11-28 14:54:00
9:54 AM,30.0,23.0,75,30.40,6.0,Variable,3.5,-,N/A,,Haze,0,2012-11-28 15:54:00
10:54 AM,36.0,26.1,67,30.38,6.0,South,9.2,-,N/A,,Haze,170,2012-11-28 16:54:00
11:54 AM,42.1,27.0,55,30.35,6.0,South,10.4,-,N/A,,Haze,170,2012-11-28 17:54:00
12:54 PM,46.9,25.0,42,30.30,9.0,South,15.0,-,N/A,,Clear,190,2012-11-28 18:54:00
1:54 PM,48.0,24.1,39,30.25,10.0,South,15.0,-,N/A,,Clear,180,2012-11-28 19:54:00
2:54 PM,48.9,23.0,36,30.21,10.0,South,18.4,-,N/A,,Clear,180,2012-11-28 20:54:00
3:54 PM,46.9,24.1,41,30.18,9.0,South,15.0,-,N/A,,Clear,170,2012-11-28 21:54:00
4:54 PM,39.9,21.9,49,30.17,7.0,SSE,9.2,-,N/A,,Clear,160,2012-11-28 22:54:00
5:54 PM,36.0,21.0,55,30.15,8.0,SE,11.5,-,N/A,,Clear,140,2012-11-28 23:54:00
6:54 PM,30.0,17.1,59,30.16,7.0,South,4.6,-,N/A,,Clear,180,2012-11-29 00:54:00
7:54 PM,30.0,18.0,61,30.14,8.0,South,5.8,-,N/A,,Clear,180,2012-11-29 01:54:00
8:54 PM,30.9,19.9,64,30.12,7.0,SE,8.1,-,N/A,,Clear,140,2012-11-29 02:54:00
9:54 PM,32.0,21.0,64,30.12,7.0,South,6.9,-,N/A,,Clear,170,2012-11-29 03:54:00
10:54 PM,34.0,24.1,67,30.11,7.0,SE,8.1,-,N/A,,Clear,130,2012-11-29 04:54:00
11:54 PM,33.1,23.0,66,30.09,8.0,SSE,9.2,-,N/A,,Clear,150,2012-11-29 05:54:00